Weather History for Indiana, PA

Change the Weather History Date:

Wednesday, May 22, 2013

  Actual Average Record
Temperature  
Mean Temperature 74 °F -  
Max Temperature 86 °F 74 °F 104 °F (2000)
Min Temperature 62 °F 46 °F 30 °F (1954)
Cooling Degree Days 9    
Growing Degree Days 24 (Base 50)    
Moisture  
Dew Point 64 °F    
Average Humidity 78    
Maximum Humidity 100    
Minimum Humidity 45    
Precipitation  
Precipitation 0.41 in - - ()
Sea Level Pressure  
Sea Level Pressure 29.89 in    
Wind  
Wind Speed 6 mph (SW)    
Max Wind Speed 26 mph    
Max Gust Speed 38 mph    
Visibility 10 miles    
Events      
Averages and records for this station are not official NWS values.
T = Trace of Precipitation, MM = Missing Value Source: NWS Daily Summary

Daily Weather History Graph

Daily Weather History Graph

Search for Another Location

Airport:

Trip Planner

Search our weather history database for the weather conditions in past years. The results will help you decide how hot, cold, wet, or windy it might be!

Date:

Astronomy

May. 22, 2013 Rise Set
Actual Time 5:53 AM EDT 8:33 PM EDT
Civil Twilight 5:21 AM EDT 9:05 PM EDT
Nautical Twilight 4:42 AM EDT 9:44 PM EDT
Astronomical Twilight 3:57 AM EDT 10:30 PM EDT
Moon 5:52 PM EDT (5/22) 3:57 AM EDT (5/22)
Length of Visible Light 15h 43m
Length of Day
14h 39m
Waxing Gibbous, 91% of the Moon is Illuminated
May 22
Waxing Gibbous
May 25
Full
May 31
Last Quarter
Jun 8
New
Jun 16
First Quarter

Hourly Weather History & Observations

Time (EDT) Temp. Heat Index Dew Point Humidity Pressure Visibility Wind Dir Wind Speed Gust Speed Precip Events Conditions
12:15 AM 71.6 °F - 64.4 °F 78% 29.90 in 10.0 mi SSW 3.5 mph - N/A   Unknown
12:35 AM 69.8 °F - 62.6 °F 78% 29.90 in 10.0 mi West 5.8 mph - N/A   Unknown
12:55 AM 69.8 °F - 62.6 °F 78% 29.90 in 10.0 mi WSW 3.5 mph - N/A   Unknown
1:15 AM 69.8 °F - 64.4 °F 83% 29.90 in 10.0 mi WSW 4.6 mph - N/A   Unknown
1:35 AM 69.8 °F - 66.2 °F 88% 29.90 in 10.0 mi Calm Calm - N/A   Unknown
1:55 AM 69.8 °F - 66.2 °F 88% 29.90 in 10.0 mi Calm Calm - N/A   Unknown
2:15 AM 69.8 °F - 64.4 °F 83% 29.89 in 10.0 mi Calm Calm - N/A   Unknown
2:35 AM 69.8 °F - 64.4 °F 83% 29.88 in 10.0 mi SW 4.6 mph - N/A   Unknown
2:55 AM 69.8 °F - 64.4 °F 83% 29.89 in 10.0 mi WSW 4.6 mph - N/A   Unknown
3:15 AM 69.8 °F - 64.4 °F 83% 29.88 in 10.0 mi WSW 5.8 mph - N/A   Unknown
3:35 AM 69.8 °F - 64.4 °F 83% 29.88 in 10.0 mi WSW 5.8 mph - N/A   Unknown
3:55 AM 69.8 °F - 66.2 °F 88% 29.89 in 10.0 mi WSW 5.8 mph - N/A   Unknown
4:15 AM 69.8 °F - 66.2 °F 88% 29.89 in 10.0 mi WSW 6.9 mph - N/A   Unknown
4:35 AM 69.8 °F - 64.4 °F 83% 29.90 in 10.0 mi WSW 5.8 mph - N/A   Unknown
4:55 AM 68.0 °F - 64.4 °F 88% 29.90 in 10.0 mi WSW 5.8 mph - N/A   Unknown
5:15 AM 68.0 °F - 64.4 °F 88% 29.90 in 10.0 mi WSW 6.9 mph - N/A   Unknown
5:35 AM 68.0 °F - 64.4 °F 88% 29.90 in 10.0 mi WSW 8.1 mph - N/A   Unknown
5:55 AM 68.0 °F - 64.4 °F 88% 29.90 in 10.0 mi WSW 6.9 mph - N/A   Unknown
6:15 AM 68.0 °F - 64.4 °F 88% 29.91 in 10.0 mi WSW 5.8 mph - N/A   Unknown
6:35 AM 66.2 °F - 62.6 °F 88% 29.91 in 10.0 mi WSW 3.5 mph - N/A   Unknown
6:55 AM 66.2 °F - 62.6 °F 88% 29.92 in 10.0 mi SW 3.5 mph - N/A   Unknown
7:15 AM 66.2 °F - 62.6 °F 88% 29.93 in 10.0 mi WSW 3.5 mph - N/A   Unknown
7:35 AM 66.2 °F - 64.4 °F 94% 29.93 in 10.0 mi WSW 3.5 mph - N/A   Unknown
7:55 AM 69.8 °F - 64.4 °F 83% 29.93 in 10.0 mi WSW 4.6 mph - N/A   Unknown
8:15 AM 71.6 °F - 64.4 °F 78% 29.93 in 10.0 mi WSW 6.9 mph - N/A   Unknown
8:35 AM 69.8 °F - 64.4 °F 83% 29.94 in 10.0 mi WSW 6.9 mph 16.1 mph N/A   Unknown
8:55 AM 69.8 °F - 64.4 °F 83% 29.94 in 10.0 mi WSW 9.2 mph - N/A   Unknown
9:15 AM 71.6 °F - 64.4 °F 78% 29.94 in 10.0 mi WSW 8.1 mph - N/A   Unknown
9:35 AM 73.4 °F - 64.4 °F 73% 29.94 in 10.0 mi WSW 11.5 mph - N/A   Unknown
9:55 AM 73.4 °F - 62.6 °F 69% 29.94 in 10.0 mi WSW 11.5 mph 16.1 mph N/A   Unknown
10:15 AM 73.4 °F - 64.4 °F 73% 29.93 in 10.0 mi West 8.1 mph - N/A   Unknown
10:35 AM 75.2 °F - 64.4 °F 69% 29.93 in 10.0 mi WSW 6.9 mph - N/A   Unknown
10:55 AM 77.0 °F - 64.4 °F 65% 29.92 in 10.0 mi West 6.9 mph - N/A   Unknown
11:15 AM 78.8 °F - 64.4 °F 61% 29.92 in 10.0 mi SSW 8.1 mph - N/A   Unknown
11:35 AM 80.6 °F 82.3 °F 64.4 °F 58% 29.91 in 10.0 mi West 5.8 mph - N/A   Unknown
11:55 AM 80.6 °F 82.3 °F 64.4 °F 58% 29.91 in 10.0 mi WSW 9.2 mph - N/A   Unknown
12:15 PM 80.6 °F 82.3 °F 64.4 °F 58% 29.91 in 10.0 mi WSW 11.5 mph - N/A   Unknown
12:35 PM 82.4 °F 84.6 °F 66.2 °F 58% 29.90 in 10.0 mi WSW 9.2 mph - N/A   Unknown
12:55 PM 82.4 °F 83.9 °F 64.4 °F 54% 29.90 in 10.0 mi WSW 11.5 mph 19.6 mph N/A   Unknown
1:15 PM 82.4 °F 83.9 °F 64.4 °F 54% 29.89 in 10.0 mi SW 10.4 mph - N/A   Unknown
1:35 PM 82.4 °F 83.9 °F 64.4 °F 54% 29.89 in 10.0 mi WSW 15.0 mph 19.6 mph N/A   Unknown
1:55 PM 84.2 °F 85.0 °F 62.6 °F 48% 29.88 in 10.0 mi SSW 16.1 mph 21.9 mph N/A   Unknown
2:15 PM 84.2 °F 85.0 °F 62.6 °F 48% 29.87 in 10.0 mi SW 13.8 mph - N/A   Unknown
2:35 PM 84.2 °F 85.0 °F 62.6 °F 48% 29.86 in 10.0 mi WSW 12.7 mph 20.7 mph N/A   Unknown
2:55 PM 86.0 °F 86.6 °F 62.6 °F 45% 29.86 in 10.0 mi West 13.8 mph 19.6 mph N/A   Unknown
3:15 PM 84.2 °F 85.0 °F 62.6 °F 48% 29.85 in 10.0 mi SW 15.0 mph 26.5 mph N/A   Unknown
3:35 PM 84.2 °F 85.0 °F 62.6 °F 48% 29.84 in 10.0 mi SW 16.1 mph 23.0 mph N/A   Unknown
3:55 PM 84.2 °F 85.0 °F 62.6 °F 48% 29.83 in 10.0 mi WSW 11.5 mph 17.3 mph N/A   Unknown
4:15 PM 84.2 °F 85.0 °F 62.6 °F 48% 29.82 in 10.0 mi SW 9.2 mph - N/A   Unknown
4:35 PM 84.2 °F 85.0 °F 62.6 °F 48% 29.82 in 10.0 mi SW 9.2 mph - N/A   Unknown
4:55 PM 82.4 °F 83.4 °F 62.6 °F 51% 29.83 in 10.0 mi WSW 8.1 mph 18.4 mph N/A   Unknown
5:15 PM 78.8 °F - 66.2 °F 65% 29.84 in 2.5 mi West 26.5 mph 38.0 mph 0.03 in   Unknown
5:35 PM 62.6 °F - 62.6 °F 100% 29.88 in 1.5 mi South 15.0 mph 36.8 mph 0.36 in   Unknown
5:55 PM 62.6 °F - 62.6 °F 100% 29.85 in 7.0 mi SW 6.9 mph - 0.37 in   Unknown
6:15 PM 64.4 °F - 64.4 °F 100% 29.82 in 10.0 mi SSE 10.4 mph 16.1 mph 0.03 in   Unknown
6:35 PM 64.4 °F - 64.4 °F 100% 29.84 in 10.0 mi SSW 3.5 mph - 0.03 in   Unknown
6:55 PM 66.2 °F - 66.2 °F 100% 29.87 in 10.0 mi Calm Calm - 0.03 in   Unknown
7:15 PM 68.0 °F - 66.2 °F 94% 29.87 in 10.0 mi Calm Calm - N/A   Unknown
7:35 PM 66.2 °F - 66.2 °F 100% 29.88 in 10.0 mi SW 6.9 mph - N/A   Unknown
7:55 PM 66.2 °F - 62.6 °F 88% 29.88 in 10.0 mi SW 12.7 mph 17.3 mph 0.01 in   Unknown
8:15 PM 64.4 °F - 62.6 °F 94% 29.88 in 10.0 mi SW 4.6 mph - N/A   Unknown
8:35 PM 66.2 °F - 64.4 °F 94% 29.86 in 10.0 mi SW 3.5 mph - N/A   Unknown
8:55 PM 66.2 °F - 64.4 °F 94% 29.85 in 10.0 mi Calm Calm - N/A   Unknown
9:15 PM 64.4 °F - 64.4 °F 100% 29.86 in 10.0 mi South 4.6 mph - N/A   Unknown
9:35 PM 64.4 °F - 64.4 °F 100% 29.86 in 10.0 mi SW 5.8 mph - N/A   Unknown
9:55 PM 66.2 °F - 62.6 °F 88% 29.86 in 10.0 mi SW 6.9 mph - N/A   Unknown
10:15 PM 66.2 °F - 64.4 °F 94% 29.87 in 10.0 mi SW 5.8 mph - N/A   Unknown
10:35 PM 66.2 °F - 64.4 °F 94% 29.87 in 10.0 mi SSW 4.6 mph - N/A   Unknown
10:55 PM 66.2 °F - 64.4 °F 94% 29.87 in 10.0 mi South 4.6 mph - N/A   Unknown
11:15 PM 66.2 °F - 64.4 °F 94% 29.86 in 10.0 mi South 3.5 mph - N/A   Unknown
11:35 PM 66.2 °F - 62.6 °F 88% 29.86 in 10.0 mi South 3.5 mph - N/A   Unknown
11:55 PM 66.2 °F - 62.6 °F 88% 29.86 in 10.0 mi South 3.5 mph - N/A   Unknown